Time,TemperatureF,DewpointF,PressureIn,WindDirection,WindDirectionDegrees,WindSpeedMPH,WindSpeedGustMPH,Humidity,HourlyPrecipIn,Conditions,Clouds,dailyrainin,SoftwareType,DateUTC
2013-03-23 00:02:00,18.0,13.0,-100.00,ENE,75,1.0,1.0,78,-99.99,,,-99.99,,2013-03-23 05:02:00,
2013-03-23 00:22:00,17.0,12.0,-100.00,South,170,0.0,1.0,82,-99.99,,,-99.99,,2013-03-23 05:22:00,
2013-03-23 00:33:00,17.0,12.0,-100.00,South,170,0.0,1.0,82,-99.99,,,-99.99,,2013-03-23 05:33:00,
2013-03-23 00:42:00,17.0,12.0,-100.00,South,170,0.0,1.0,82,-99.99,,,-99.99,,2013-03-23 05:42:00,
2013-03-23 00:52:00,17.0,12.0,-100.00,South,170,0.0,1.0,82,-99.99,,,-99.99,,2013-03-23 05:52:00,
2013-03-23 02:22:00,16.0,12.0,-100.00,SSW,195,0.0,0.0,87,-99.99,,,-99.99,,2013-03-23 07:22:00,
2013-03-23 02:33:00,16.0,12.0,-100.00,SSW,195,0.0,0.0,87,-99.99,,,-99.99,,2013-03-23 07:33:00,
2013-03-23 02:42:00,16.0,12.0,-100.00,SSW,195,0.0,0.0,87,-99.99,,,-99.99,,2013-03-23 07:42:00,
2013-03-23 02:52:00,16.0,12.0,-100.00,SSW,195,0.0,0.0,87,-99.99,,,-99.99,,2013-03-23 07:52:00,
2013-03-23 03:02:00,16.0,12.0,-100.00,SSW,195,0.0,0.0,87,-99.99,,,-99.99,,2013-03-23 08:02:00,
2013-03-23 03:22:00,15.0,12.0,-100.00,East,100,0.0,0.0,89,-99.99,,,-99.99,,2013-03-23 08:22:00,
2013-03-23 03:32:00,15.0,12.0,-100.00,East,100,0.0,0.0,89,-99.99,,,-99.99,,2013-03-23 08:32:00,
2013-03-23 03:42:00,15.0,12.0,-100.00,East,100,0.0,0.0,89,-99.99,,,-99.99,,2013-03-23 08:42:00,
2013-03-23 03:52:00,15.0,12.0,-100.00,East,100,0.0,0.0,89,-99.99,,,-99.99,,2013-03-23 08:52:00,
2013-03-23 04:02:00,15.0,12.0,-100.00,East,100,0.0,0.0,89,-99.99,,,-99.99,,2013-03-23 09:02:00,
2013-03-23 04:03:00,15.0,12.0,-100.00,East,90,0.0,1.0,89,-99.99,,,-99.99,,2013-03-23 09:03:00,
2013-03-23 04:22:00,15.0,12.0,-100.00,East,90,0.0,1.0,89,-99.99,,,-99.99,,2013-03-23 09:22:00,
2013-03-23 04:33:00,15.0,12.0,-100.00,East,90,0.0,1.0,89,-99.99,,,-99.99,,2013-03-23 09:33:00,
2013-03-23 04:43:00,15.0,12.0,-100.00,East,90,0.0,1.0,89,-99.99,,,-99.99,,2013-03-23 09:43:00,
2013-03-23 04:53:00,15.0,12.0,-100.00,East,90,0.0,1.0,89,-99.99,,,-99.99,,2013-03-23 09:53:00,
2013-03-23 05:03:00,15.0,12.0,-100.00,WSW,245,0.0,1.0,89,-99.99,,,-99.99,,2013-03-23 10:03:00,
2013-03-23 05:24:00,15.0,12.0,-100.00,WSW,245,0.0,1.0,89,-99.99,,,-99.99,,2013-03-23 10:24:00,
2013-03-23 05:34:00,15.0,12.0,-100.00,WSW,245,0.0,1.0,89,-99.99,,,-99.99,,2013-03-23 10:34:00,
2013-03-23 05:43:00,15.0,12.0,-100.00,WSW,245,0.0,1.0,89,-99.99,,,-99.99,,2013-03-23 10:43:00,
2013-03-23 05:52:00,15.0,12.0,-100.00,WSW,245,0.0,1.0,89,-99.99,,,-99.99,,2013-03-23 10:52:00,
2013-03-23 06:22:00,15.0,13.0,-100.00,West,270,0.0,4.0,91,-99.99,,,-99.99,,2013-03-23 11:22:00,
2013-03-23 06:32:00,15.0,13.0,-100.00,West,270,0.0,4.0,91,-99.99,,,-99.99,,2013-03-23 11:32:00,
2013-03-23 06:42:00,15.0,13.0,-100.00,West,270,0.0,4.0,91,-99.99,,,-99.99,,2013-03-23 11:42:00,
2013-03-23 06:52:00,15.0,13.0,-100.00,West,270,0.0,4.0,91,-99.99,,,-99.99,,2013-03-23 11:52:00,
2013-03-23 07:02:00,15.0,13.0,-100.00,West,270,0.0,4.0,91,-99.99,,,-99.99,,2013-03-23 12:02:00,
2013-03-23 07:22:00,11.0,9.0,-100.00,SW,220,0.0,1.0,93,-99.99,,,-99.99,,2013-03-23 12:22:00,
2013-03-23 07:33:00,11.0,9.0,-100.00,SW,220,0.0,1.0,93,-99.99,,,-99.99,,2013-03-23 12:33:00,
2013-03-23 07:43:00,11.0,9.0,-100.00,SW,220,0.0,1.0,93,-99.99,,,-99.99,,2013-03-23 12:43:00,
2013-03-23 07:53:00,11.0,9.0,-100.00,SW,220,0.0,1.0,93,-99.99,,,-99.99,,2013-03-23 12:53:00,
2013-03-23 08:02:00,11.0,9.0,-100.00,SW,220,0.0,1.0,93,-99.99,,,-99.99,,2013-03-23 13:02:00,
2013-03-23 08:03:00,13.0,11.0,-100.00,East,95,0.0,1.0,94,-99.99,,,-99.99,,2013-03-23 13:03:00,
2013-03-23 08:23:00,13.0,11.0,-100.00,East,95,0.0,1.0,94,-99.99,,,-99.99,,2013-03-23 13:23:00,
2013-03-23 08:33:00,13.0,11.0,-100.00,East,95,0.0,1.0,94,-99.99,,,-99.99,,2013-03-23 13:33:00,
2013-03-23 08:43:00,13.0,11.0,-100.00,East,95,0.0,1.0,94,-99.99,,,-99.99,,2013-03-23 13:43:00,
2013-03-23 08:53:00,13.0,11.0,-100.00,East,95,0.0,1.0,94,-99.99,,,-99.99,,2013-03-23 13:53:00,
2013-03-23 09:03:00,25.0,21.0,-100.00,NNE,25,0.0,2.0,84,-99.99,,,-99.99,,2013-03-23 14:03:00,
2013-03-23 09:23:00,25.0,21.0,-100.00,NNE,25,0.0,2.0,84,-99.99,,,-99.99,,2013-03-23 14:23:00,
2013-03-23 09:33:00,25.0,21.0,-100.00,NNE,25,0.0,2.0,84,-99.99,,,-99.99,,2013-03-23 14:33:00,
2013-03-23 09:43:00,25.0,21.0,-100.00,NNE,25,0.0,2.0,84,-99.99,,,-99.99,,2013-03-23 14:43:00,
2013-03-23 09:53:00,25.0,21.0,-100.00,NNE,25,0.0,2.0,84,-99.99,,,-99.99,,2013-03-23 14:53:00,
2013-03-23 10:02:00,30.0,20.0,-100.00,NE,45,3.0,5.0,66,-99.99,,,-99.99,,2013-03-23 15:02:00,
2013-03-23 10:22:00,30.0,20.0,-100.00,NE,45,3.0,5.0,66,-99.99,,,-99.99,,2013-03-23 15:22:00,
2013-03-23 10:34:00,30.0,20.0,-100.00,NE,45,3.0,5.0,66,-99.99,,,-99.99,,2013-03-23 15:34:00,
2013-03-23 10:44:00,30.0,20.0,-100.00,NE,45,3.0,5.0,66,-99.99,,,-99.99,,2013-03-23 15:44:00,
2013-03-23 10:53:00,30.0,20.0,-100.00,NE,45,3.0,5.0,66,-99.99,,,-99.99,,2013-03-23 15:53:00,
2013-03-23 11:23:00,36.0,21.0,-100.00,NE,45,2.0,5.0,54,-99.99,,,-99.99,,2013-03-23 16:23:00,
2013-03-23 11:33:00,36.0,21.0,-100.00,NE,45,2.0,5.0,54,-99.99,,,-99.99,,2013-03-23 16:33:00,
2013-03-23 11:43:00,36.0,21.0,-100.00,NE,45,2.0,5.0,54,-99.99,,,-99.99,,2013-03-23 16:43:00,
2013-03-23 11:53:00,36.0,21.0,-100.00,NE,45,2.0,5.0,54,-99.99,,,-99.99,,2013-03-23 16:53:00,
2013-03-23 12:02:00,36.0,21.0,-100.00,NE,45,2.0,5.0,54,-99.99,,,-99.99,,2013-03-23 17:02:00,
2013-03-23 12:03:00,38.0,21.0,-100.00,NW,320,4.0,8.0,50,-99.99,,,-99.99,,2013-03-23 17:03:00,
2013-03-23 12:23:00,38.0,21.0,-100.00,NW,320,4.0,8.0,50,-99.99,,,-99.99,,2013-03-23 17:23:00,
2013-03-23 12:33:00,38.0,21.0,-100.00,NW,320,4.0,8.0,50,-99.99,,,-99.99,,2013-03-23 17:33:00,
2013-03-23 12:43:00,38.0,21.0,-100.00,NW,320,4.0,8.0,50,-99.99,,,-99.99,,2013-03-23 17:43:00,
2013-03-23 12:53:00,38.0,21.0,-100.00,NW,320,4.0,8.0,50,-99.99,,,-99.99,,2013-03-23 17:53:00,
2013-03-23 13:02:00,43.0,22.0,-100.00,NW,315,2.0,7.0,42,-99.99,,,-99.99,,2013-03-23 18:02:00,
2013-03-23 13:23:00,43.0,22.0,-100.00,NW,315,2.0,7.0,42,-99.99,,,-99.99,,2013-03-23 18:23:00,
2013-03-23 13:32:00,43.0,22.0,-100.00,NW,315,2.0,7.0,42,-99.99,,,-99.99,,2013-03-23 18:32:00,
2013-03-23 13:43:00,43.0,22.0,-100.00,NW,315,2.0,7.0,42,-99.99,,,-99.99,,2013-03-23 18:43:00,
2013-03-23 13:53:00,43.0,22.0,-100.00,NW,315,2.0,7.0,42,-99.99,,,-99.99,,2013-03-23 18:53:00,
2013-03-23 14:02:00,45.0,22.0,-100.00,ENE,60,1.0,4.0,39,-99.99,,,-99.99,,2013-03-23 19:02:00,
2013-03-23 14:23:00,45.0,22.0,-100.00,ENE,60,1.0,4.0,39,-99.99,,,-99.99,,2013-03-23 19:23:00,
2013-03-23 14:33:00,45.0,22.0,-100.00,ENE,60,1.0,4.0,39,-99.99,,,-99.99,,2013-03-23 19:33:00,
2013-03-23 14:43:00,45.0,22.0,-100.00,ENE,60,1.0,4.0,39,-99.99,,,-99.99,,2013-03-23 19:43:00,
2013-03-23 14:53:00,45.0,22.0,-100.00,ENE,60,1.0,4.0,39,-99.99,,,-99.99,,2013-03-23 19:53:00,
2013-03-23 15:23:00,45.0,21.0,-100.00,NW,320,6.0,9.0,38,-99.99,,,-99.99,,2013-03-23 20:23:00,
2013-03-23 15:32:00,45.0,21.0,-100.00,NW,320,6.0,9.0,38,-99.99,,,-99.99,,2013-03-23 20:32:00,
2013-03-23 15:43:00,45.0,21.0,-100.00,NW,320,6.0,9.0,38,-99.99,,,-99.99,,2013-03-23 20:43:00,
2013-03-23 15:53:00,45.0,21.0,-100.00,NW,320,6.0,9.0,38,-99.99,,,-99.99,,2013-03-23 20:53:00,
2013-03-23 16:02:00,45.0,21.0,-100.00,NW,320,6.0,9.0,38,-99.99,,,-99.99,,2013-03-23 21:02:00,
2013-03-23 16:03:00,43.0,20.0,-100.00,North,0,2.0,7.0,41,-99.99,,,-99.99,,2013-03-23 21:03:00,
2013-03-23 16:23:00,43.0,20.0,-100.00,North,0,2.0,7.0,41,-99.99,,,-99.99,,2013-03-23 21:23:00,
2013-03-23 16:33:00,43.0,20.0,-100.00,North,0,2.0,7.0,41,-99.99,,,-99.99,,2013-03-23 21:33:00,
2013-03-23 16:43:00,43.0,20.0,-100.00,North,0,2.0,7.0,41,-99.99,,,-99.99,,2013-03-23 21:43:00,
2013-03-23 16:54:00,43.0,20.0,-100.00,North,0,2.0,7.0,41,-99.99,,,-99.99,,2013-03-23 21:54:00,
2013-03-23 17:23:00,39.0,19.0,-100.00,NNW,335,3.0,6.0,45,-99.99,,,-99.99,,2013-03-23 22:23:00,
2013-03-23 17:33:00,39.0,19.0,-100.00,NNW,335,3.0,6.0,45,-99.99,,,-99.99,,2013-03-23 22:33:00,
2013-03-23 17:43:00,39.0,19.0,-100.00,NNW,335,3.0,6.0,45,-99.99,,,-99.99,,2013-03-23 22:43:00,
2013-03-23 17:53:00,39.0,19.0,-100.00,NNW,335,3.0,6.0,45,-99.99,,,-99.99,,2013-03-23 22:53:00,
2013-03-23 18:02:00,39.0,19.0,-100.00,NNW,335,3.0,6.0,45,-99.99,,,-99.99,,2013-03-23 23:02:00,
2013-03-23 18:23:00,39.0,21.0,-100.00,North,5,2.0,6.0,48,-99.99,,,-99.99,,2013-03-23 23:23:00,
2013-03-23 18:33:00,39.0,21.0,-100.00,North,5,2.0,6.0,48,-99.99,,,-99.99,,2013-03-23 23:33:00,
2013-03-23 18:43:00,39.0,21.0,-100.00,North,5,2.0,6.0,48,-99.99,,,-99.99,,2013-03-23 23:43:00,
2013-03-23 18:52:00,39.0,21.0,-100.00,North,5,2.0,6.0,48,-99.99,,,-99.99,,2013-03-23 23:52:00,
2013-03-23 19:02:00,39.0,21.0,-100.00,North,5,2.0,6.0,48,-99.99,,,-99.99,,2013-03-24 00:02:00,
2013-03-23 19:23:00,35.0,19.0,-100.00,NNW,340,1.0,4.0,52,-99.99,,,-99.99,,2013-03-24 00:23:00,
2013-03-23 19:33:00,35.0,19.0,-100.00,NNW,340,1.0,4.0,52,-99.99,,,-99.99,,2013-03-24 00:33:00,
2013-03-23 19:42:00,35.0,19.0,-100.00,NNW,340,1.0,4.0,52,-99.99,,,-99.99,,2013-03-24 00:42:00,
2013-03-23 19:52:00,35.0,19.0,-100.00,NNW,340,1.0,4.0,52,-99.99,,,-99.99,,2013-03-24 00:52:00,
2013-03-23 20:02:00,35.0,19.0,-100.00,NNW,340,1.0,4.0,52,-99.99,,,-99.99,,2013-03-24 01:02:00,
2013-03-23 20:22:00,30.0,19.0,-100.00,NNW,330,0.0,2.0,62,-99.99,,,-99.99,,2013-03-24 01:22:00,
2013-03-23 20:33:00,30.0,19.0,-100.00,NNW,330,0.0,2.0,62,-99.99,,,-99.99,,2013-03-24 01:33:00,
2013-03-23 20:43:00,30.0,19.0,-100.00,NNW,330,0.0,2.0,62,-99.99,,,-99.99,,2013-03-24 01:43:00,
2013-03-23 20:53:00,30.0,19.0,-100.00,NNW,330,0.0,2.0,62,-99.99,,,-99.99,,2013-03-24 01:53:00,
2013-03-23 21:02:00,30.0,19.0,-100.00,NNW,330,0.0,2.0,62,-99.99,,,-99.99,,2013-03-24 02:02:00,
2013-03-23 21:22:00,29.0,22.0,-100.00,SW,220,0.0,1.0,74,-99.99,,,-99.99,,2013-03-24 02:22:00,
2013-03-23 21:32:00,29.0,22.0,-100.00,SW,220,0.0,1.0,74,-99.99,,,-99.99,,2013-03-24 02:32:00,
2013-03-23 21:43:00,29.0,22.0,-100.00,SW,220,0.0,1.0,74,-99.99,,,-99.99,,2013-03-24 02:43:00,
2013-03-23 21:52:00,29.0,22.0,-100.00,SW,220,0.0,1.0,74,-99.99,,,-99.99,,2013-03-24 02:52:00,
2013-03-23 22:02:00,29.0,22.0,-100.00,SW,220,0.0,1.0,74,-99.99,,,-99.99,,2013-03-24 03:02:00,
2013-03-23 22:23:00,29.0,23.0,-100.00,NW,305,0.0,1.0,77,-99.99,,,-99.99,,2013-03-24 03:23:00,
2013-03-23 22:33:00,29.0,23.0,-100.00,NW,305,0.0,1.0,77,-99.99,,,-99.99,,2013-03-24 03:33:00,
2013-03-23 22:43:00,29.0,23.0,-100.00,NW,305,0.0,1.0,77,-99.99,,,-99.99,,2013-03-24 03:43:00,
2013-03-23 22:53:00,29.0,23.0,-100.00,NW,305,0.0,1.0,77,-99.99,,,-99.99,,2013-03-24 03:53:00,
2013-03-23 23:02:00,29.0,23.0,-100.00,NW,305,0.0,1.0,77,-99.99,,,-99.99,,2013-03-24 04:02:00,
2013-03-23 23:23:00,31.0,24.0,-100.00,NNE,25,1.0,7.0,74,-99.99,,,-99.99,,2013-03-24 04:23:00,
2013-03-23 23:33:00,31.0,24.0,-100.00,NNE,25,1.0,7.0,74,-99.99,,,-99.99,,2013-03-24 04:33:00,
2013-03-23 23:43:00,31.0,24.0,-100.00,NNE,25,1.0,7.0,74,-99.99,,,-99.99,,2013-03-24 04:43:00,
2013-03-23 23:53:00,31.0,24.0,-100.00,NNE,25,1.0,7.0,74,-99.99,,,-99.99,,2013-03-24 04:53:00,